Погода в Бендер-Аббасе

Иран     27°11′36″N   56°18′19″E
темп.,
°C
ветер,
м/с
пор.,
м/с
влажн.,
%
обл.,
%
осадки,
мм/ч
давл.,
гПа
погр.,
м
13 августа, сб
сб1301:30+34св55385 0.0 99561
04:30+35ссв333160 0.0 99413
07:30+35с113030 0.0 99612
10:30+38ююв32265 0.0 997650
13:30+38ююв53249 0.0 996861
16:30+37ю44345 0.0 994373
19:30+34вюв43534 0.0 995271
22:30+32в446931 0.0 997424
14 августа, вс
вс1401:30+32всв33654 0.0 996285
04:30+31вюв34748 0.0 996304
07:30+31в337381 0.0 999534
10:30+33юв43635 0.0 1000774
13:30+34ююв32575 0.0 998740
16:30+34ююв44524 0.0 996431
19:30+36зюз674372 0.0 996453
22:30+34юз335256 0.0 997167
15 августа, пн
пн1501:30+33юв2155100 0.0 997123
04:30+32в23625 0.0 997135
07:30+32всв34615 0.0 999244
10:30+35ююв21495 0.0 999590
13:30+37ююз434181 0.0 998818
16:30+38юз883637 0.0 996649
19:30+35юз794211 0.0 997425
22:30+33юз3455100 0.0 999230
16 августа, вт
вт1601:30+32ююв226111 0.0 998163
04:30+31в22665 0.0 998157
07:30+32всв33650 0.0 1000308
10:30+34ю43550 0.0 1000679
13:30+33ююв53600 0.0 999631
16:30+33ююв435955 0.0 998474
19:30+31юв5469100 0.0 1000487
22:30+30юв447673 0.0 1001672
17 августа, ср
ср1701:30+30вюв447594 0.0 1000662
04:30+30всв447495 0.0 999512
07:30+30всв337245 0.0 1000420
10:30+33юв225423 0.0 1001648
13:30+34ююв535139 0.0 999725
16:30+33ю4255100 0.0 998566
19:30+31ююв4472100 0.0 998419
22:30+31в2369100 0.0 1000473